Miscellaneous Local Product
Issued by NWS North Platte, NE

Home | Current Version | Previous Version | Graphics & Text | Print | Product List | Glossary On
Versions: 1 2 3 4 5 6 7 8 9 10 11 12 13 14 15 16 17 18 19 20 21 22 23 24 25 26 27 28 29 30 31 32 33 34 35 36 37 38 39 40 41 42 43 44 45 46 47 48 49 50
000
AXUS43 KLBF 251810
MISLBF


WESTERN AND NORTH CENTRAL NEBRASKA HOURLY WEATHER ROUNDUP
NATIONAL WEATHER SERVICE NORTH PLATTE NE
100 PM CDT TUE JUL 25 2017

NOTE: "FAIR" INDICATES FEW OR NO CLOUDS BELOW 12,000 FEET WITH NO
SIGNIFICANT WEATHER AND/OR OBSTRUCTIONS TO VISIBILITY.

NOTE: STATIONS NOT REPORTING VARIABLES SUCH AS SKY/WEATHER OR
PRESSURE ARE PROVIDED BY RAWS AND APRS NETWORKS AND ARE NOT UNDER
NATIONAL WEATHER SERVICE QUALITY CONTROL.

...OBSERVATIONS IN AND NEAR THE EASTERN PANHANDLE OF NEBRASKA...

CITY           SKY/WX    TMP DP  RH WIND       PRES   REMARKS
PINE RIDGE     CLOUDY    93  61  34 N9        29.95F HX  93
GORDON         FAIR      89  62  40 NW3       29.96S
CHADRON        SUNNY     89  50  26 NE12      29.95F
ALLIANCE       SUNNY     97  58  27 MISG      29.96F HX  96
SIDNEY         SUNNY     94  57  28 S9G18     30.02S HX  92
CRESCENT LAKE    N/A     93  61  34 S9          N/A  HX  93
$$

...OBSERVATIONS IN NORTHERN NEBRASKA AND FAR SOUTHERN SOUTH DAKOTA...

CITY           SKY/WX    TMP DP  RH WIND       PRES   REMARKS
WINNER         FAIR      98  64  32 W6        29.86F HX 100
VALENTINE      CLOUDY   103  59  23 SW18G24   29.88F HX 103
THEDFORD       CLOUDY    94  63  35 S16G22    29.95F HX  95
AINSWORTH      SUNNY    100  64  30 SW18G25   29.91F HX 102
O`NEILL        SUNNY     94  67  42 S21G28    29.91F HX  97
ORD            MOSUNNY   92  65  40 S18G28    29.94F HX  94
BROKEN BOW     MOSUNNY   93  68  43 S18G28    29.97F HX  97
VALENTINE NWR    N/A     95  63  34 SW14G21     N/A  HX  96
HALSEY           N/A     93  62  35 S10G20      N/A  HX  93
BUTTE            N/A     94  73  50 S12G26      N/A  HX 103
CHAMBERS         N/A     97  69  39 MISG        N/A  HX 102
EWING            N/A     95  68  41 S14G25      N/A  HX  99
$$

...OBSERVATIONS IN SOUTHWEST NEBRASKA AND FAR NORTHEAST COLORADO...

CITY           SKY/WX    TMP DP  RH WIND       PRES   REMARKS
HOLYOKE        FAIR      95  61  31 SE16      29.98F HX  95
IMPERIAL       SUNNY     97  60  29 S18G25    29.97F HX  97
OGALLALA       SUNNY     96  60  30 S18       29.96F HX  96
NORTH PLATTE   SUNNY     97  66  36 S16       29.94F HX 100
MCCOOK         SUNNY     94  68  42 S20G29    29.96F HX  98
LEXINGTON      MOSUNNY   89  71  55 S17G23    29.97F HX  95
STAPLETON        N/A     94  67  41 SE3         N/A  HX  98
GOTHENBURG       N/A     87  64  45 SE10        N/A
CALLAWAY         N/A     88  73  61 S14         N/A  HX  96
$$

...OBSERVATIONS IN CENTRAL LINCOLN COUNTY AREA...

CITY           SKY/WX    TMP DP  RH WIND       PRES   REMARKS
N.P. AIRPORT   SUNNY     97  66  36 S16       29.94F HX 100
N.P. DOWNTOWN    N/A     96  68  40 S3          N/A  HX 101
N.P. HILLCREST   N/A     94  66  39 S15G23      N/A  HX  97
$$

...SOME OBSERVATIONS FROM AROUND THE REGION...

CITY           SKY/WX    TMP DP  RH WIND       PRES   REMARKS
DENVER         CLOUDY    87  48  25 SW10      30.09F
LIMON          SUNNY     88  56  33 E6        30.11F
ASPEN          CLOUDY    72  52  49 NE3       30.33S
LARAMIE        CLOUDY    77  45  32 E5        30.27S
CASPER         CLOUDY    77  46  33 N7        30.15S
CHEYENNE       CLOUDY    83  47  28 NW8       30.16S
SCOTTSBLUFF    MOSUNNY   89  50  26 W10       29.98S
GRAND ISLAND   SUNNY     92  69  47 S17       29.99S HX  97
OMAHA          MOSUNNY   91  72  53 SE12      30.00S HX  98
SIOUX FALLS    PTSUNNY   90  75  61 S21G28    29.90F HX 100
PIERRE         CLOUDY    89  64  43 E16G23    29.87R HX  90
RAPID CITY     CLOUDY    83  56  39 NE16      29.98F
BISMARCK       CLOUDY    81  55  40 N6        29.95R
KANSAS CITY    MOSUNNY   91  73  55 S9        30.07S HX  99
HILL CITY      SUNNY     94  68  42 S16G24    29.99F HX  98
WICHITA        MOSUNNY   94  67  41 S13G23    30.02F HX  97
DODGE CITY     SUNNY     95  65  37 S17       30.03F HX  97
OKLAHOMA CITY  MOSUNNY   93  68  43 VRB7G18   30.06F HX  97
DALLAS         MOSUNNY   92  75  57 S9        30.05F HX 103
AMARILLO       SUNNY     95  59  30 S13       30.11F HX  94
$$




USA.gov is the U.S. government's official web portal to all federal, state and local government web resources and services.